Location: Unspecified
(35.6961°N, 0.0000°E)
Time: 04:39:10
(UTC+00:00)

Vanguard 3 - Pass Details

Date: 04 June 2019
Orbit: 508 x 3263 km, 33.3° (Epoch: 17 June)

Event Time Altitude Azimuth Distance (km) Brightness Sun altitude
Rises 16:44:24 0° 233° (SW) 2,738 10.5 27.4°
Reaches altitude 10° 16:46:53 10° 221° (SW) 1,740 9.4 26.9°
Maximum altitude 16:50:07 28° 159° (SSE) 966 7.5 26.3°
Drops below altitude 10° 16:53:30 10° 98° (E) 1,823 8.5 25.6°
Sets 16:56:11 0° 87° (E) 2,902 9.4 25.1°
